Temp
-1 -1 -1 0 0 1 1 1 2 2 2 1 2 2 4 6 6 7 8 8 8 9 9 10 12 12 13 14 13 13 13 12 13 14 16 17 16 15 15 13 14 11 9 14
-0 -1 -0 -0 0 0 1 1 0 1 2 2 2 3 4 5 6 6 7 7 8 9 9 9 9 10 12 13 13 13 13 12 12 13 14 15 15 15 15 14 11 11 12 13
-1 -1 -1 -0 -0 -0 0 0 1 1 1 2 4 2 3 4 5 5 5 6 6 8 7 8 8 9 11 12 12 13 11 12 12 12 14 15 15 16 16 15 11 13 13 15
-1 -1 -1 -1 -1 -0 -0 -0 0 1 2 2 3 4 4 3 4 5 6 5 6 6 5 7 7 9 10 11 12 12 10 10 10 13 15 16 16 15 15 14 15 14 15 13
-1 -1 -1 -1 -1 -0 -0 -0 0 1 2 3 3 4 4 4 4 5 5 4 5 6 5 6 6 7 8 9 11 11 10 9 8 10 14 15 15 16 16 15 15 14 15 14
-1 -1 -1 -1 -0 -0 0 0 1 2 2 2 2 3 4 4 5 5 5 5 5 4 6 7 8 9 8 8 9 10 9 8 8 8 10 13 12 14 15 15 15 15 14 14
-1 -1 -1 -1 -0 -0 0 0 1 1 2 3 3 4 4 4 4 4 5 5 5 6 7 7 8 7 7 8 8 9 8 8 7 8 8 9 13 15 16 15 15 15 16 16
-1 -1 -1 -0 -0 -0 -0 0 1 2 2 3 3 4 4 4 4 5 5 5 7 7 6 5 6 3 7 7 7 8 8 7 6 8 8 9 13 14 15 14 15 15 15 15
-0 -0 -0 -0 -0 -0 -0 -0 0 1 2 2 3 4 4 2 3 4 4 5 6 6 4 4 5 4 6 8 8 8 7 7 7 6 8 9 10 13 15 15 13 15 15 15
-0 -0 -0 -1 -0 -0 0 0 0 1 1 2 3 4 3 5 3 2 3 4 4 5 2 1 3 4 7 6 6 6 7 6 7 7 7 7 10 11 12 11 13 14 16 17
-1 -0 -0 -0 -1 -1 -0 -0 0 1 0 1 2 3 4 4 4 2 5 5 4 2 2 2 3 1 4 6 7 7 6 6 7 6 7 7 9 9 9 10 13 14 14 13
-0 -0 -0 -0 -0 -1 -1 -1 -0 0 0 1 3 3 4 5 5 5 5 6 5 4 2 1 2 1 -1 5 4 7 6 6 5 6 7 9 11 9 9 9 9 14 15 15
0 0 -0 -0 -0 -0 -1 -1 -0 -0 -0 0 1 2 3 4 5 5 6 6 8 7 8 2 3 4 2 2 4 7 7 7 7 7 9 9 11 13 14 12 11 15 15 15
1 0 0 0 0 -0 -1 -1 -1 -1 -0 -0 1 3 3 3 4 5 5 7 7 8 7 4 2 1 5 2 6 4 6 7 7 7 9 10 11 11 13 12 14 14 14 15
0 0 0 0 0 -0 -0 -0 -0 -0 2 0 1 3 4 5 4 4 5 5 7 7 4 2 3 3 4 3 4 4 5 5 5 4 6 5 8 9 11 12 12 13 13 14
0 -0 0 0 -0 -1 -1 -1 -1 -0 2 2 0 2 3 3 3 4 3 5 6 7 7 4 6 6 5 3 3 3 2 2 3 4 6 4 6 7 9 9 9 10 11 9
0 0 0 0 0 -0 -0 1 1 0 1 2 1 2 2 3 3 2 2 4 5 6 6 4 4 5 6 2 2 1 1 1 3 3 4 5 5 3 5 7 8 9 9 10
0 0 0 -0 -0 -1 0 2 2 1 2 1 1 2 2 3 2 3 4 4 5 5 5 4 3 5 4 2 -1 -1 -1 -1 2 2 1 1 4 5 6 5 7 8 7 7
-0 0 -0 -1 -0 0 0 0 0 1 1 0 -0 0 3 2 2 3 4 4 0 2 1 1 4 0 -0 -2 -3 -3 -3 -3 -2 0 1 1 4 3 3 2 4 3 1 2
-1 -1 -0 -0 0 0 0 0 0 0 0 1 0 1 2 3 1 1 1 1 1 3 2 3 -2 -2 -4 -5 -5 -5 -5 -3 -2 -2 -0 -1 -1 -1 -1 -1 -1 -1 -3 -3
1 0 -0 -0 0 1 0 -0 -0 -0 -0 1 1 1 1 2 0 1 1 2 2 3 2 2 -1 -3 -4 -6 -6 -6 -6 -5 -4 -4 -3 -4 -3 -4 -5 -4 -3 -4 -4 -3
1 0 -0 -0 -0 0 -1 -1 -2 0 1 -1 0 0 1 1 2 -0 1 2 1 3 -2 -2 -3 -4 -6 -6 -7 -7 -7 -7 -6 -6 -6 -6 -5 -6 -6 -6 -7 -5 -6 -7
2 2 0 0 -3 -5 -5 -2 -1 -1 -2 -2 -0 1 1 1 0 -0 1 2 1 -2 -3 -5 -5 -6 -7 -7 -8 -8 -8 -8 -8 -8 -8 -8 -8 -8 -7 -8 -8 -7 -7 -8
-1 -3 -7 -7 -8 -6 -6 -6 -7 -4 -3 -3 -1 -0 0 -0 -0 -1 1 -3 -3 -6 -7 -6 -7 -7 -8 -8 -9 -9 -9 -9 -9 -9 -9 -9 -9 -9 -8 -8 -8 -8 -8 -8
-5 -5 -7 -7 -7 -6 -6 -5 -4 -4 -4 -2 -1 -1 -1 -4 -4 -5 -4 -6 -7 -7 -9 -9 -9 -8 -9 -9 -9 -9 -10 -10 -10 -10 -9 -9 -9 -9 -9 -9 -9 -9 -9 -9
-5 -7 -8 -7 -8 -8 -7 -6 -6 -5 -3 -2 -2 -2 -3 -5 -6 -6 -7 -6 -8 -9 -9 -9 -9 -9 -9 -9 -9 -10 -10 -10 -10 -10 -10 -9 -9 -9 -10 -9 -9 -10 -10 -10
-6 -8 -8 -8 -8 -8 -8 -7 -7 -5 -4 -5 -5 -5 -4 -5 -6 -8 -8 -9 -9 -10 -11 -10 -10 -10 -10 -9 -9 -9 -9 -9 -9 -9 -9 -10 -10 -10 -10 -10 -11 -11 -11 -11
Height
1434 1436 1438 1441 1443 1447 1449 1448 1444 1446 1452 1458 1454 1454 1456 1452 1449 1449 1448 1446 1443 1440 1438 1435 1429 1426 1424 1424 1422 1425 1423 1431 1435 1430 1419 1420 1422 1430 1432 1451 1451 1456 1464 1438
1424 1426 1428 1431 1435 1439 1442 1438 1438 1441 1443 1442 1445 1449 1449 1451 1448 1446 1448 1446 1444 1440 1441 1442 1437 1428 1424 1425 1425 1426 1426 1430 1438 1430 1427 1422 1424 1424 1425 1431 1440 1446 1454 1438
1411 1413 1417 1421 1425 1429 1435 1431 1432 1434 1433 1431 1437 1447 1447 1448 1447 1447 1449 1447 1446 1443 1443 1441 1440 1436 1429 1429 1428 1426 1424 1427 1429 1431 1427 1420 1421 1417 1416 1421 1440 1437 1432 1424
1398 1401 1405 1409 1414 1419 1426 1421 1418 1418 1419 1424 1431 1438 1438 1444 1443 1445 1445 1442 1443 1446 1450 1445 1445 1440 1434 1430 1431 1427 1428 1434 1430 1420 1411 1410 1411 1413 1414 1418 1416 1422 1418 1421
1384 1387 1392 1396 1403 1409 1413 1410 1410 1412 1413 1420 1428 1429 1429 1436 1442 1440 1441 1441 1442 1444 1446 1448 1448 1443 1443 1436 1429 1429 1429 1434 1434 1427 1411 1409 1411 1404 1402 1406 1409 1412 1410 1411
1369 1373 1378 1384 1390 1398 1398 1401 1403 1407 1407 1412 1417 1416 1428 1432 1436 1434 1436 1439 1443 1445 1442 1441 1439 1438 1437 1434 1432 1429 1430 1431 1436 1438 1426 1416 1417 1400 1402 1402 1400 1401 1410 1402
1355 1359 1364 1370 1377 1382 1388 1390 1397 1402 1397 1401 1406 1413 1422 1427 1431 1433 1434 1438 1441 1437 1436 1436 1433 1432 1429 1429 1427 1426 1429 1429 1436 1440 1438 1435 1396 1388 1389 1395 1393 1393 1393 1390
1342 1346 1351 1357 1364 1371 1377 1383 1388 1393 1392 1398 1402 1408 1414 1422 1427 1433 1434 1433 1432 1435 1436 1436 1432 1435 1428 1421 1419 1419 1420 1427 1437 1434 1437 1426 1402 1397 1395 1396 1388 1384 1386 1385
1331 1336 1340 1346 1353 1361 1369 1374 1381 1386 1388 1382 1397 1402 1408 1415 1423 1429 1430 1428 1431 1435 1435 1437 1434 1438 1423 1415 1412 1412 1418 1421 1428 1439 1432 1425 1410 1398 1393 1391 1393 1378 1375 1378
1323 1328 1333 1338 1345 1351 1360 1364 1372 1377 1378 1385 1388 1391 1399 1408 1415 1421 1423 1423 1428 1430 1437 1442 1438 1431 1419 1421 1419 1421 1421 1427 1426 1430 1428 1421 1405 1401 1396 1412 1392 1379 1378 1375
1312 1318 1324 1331 1339 1345 1350 1355 1362 1370 1373 1378 1381 1385 1389 1397 1403 1411 1413 1420 1420 1426 1433 1434 1429 1436 1420 1415 1413 1413 1421 1423 1423 1425 1428 1423 1403 1401 1405 1407 1392 1380 1377 1377
1300 1307 1314 1322 1331 1339 1346 1352 1357 1365 1371 1373 1377 1381 1384 1388 1392 1402 1404 1405 1404 1408 1417 1420 1420 1425 1426 1415 1419 1408 1415 1412 1419 1418 1412 1397 1396 1395 1393 1403 1399 1383 1377 1374
1290 1296 1304 1313 1323 1333 1341 1345 1354 1362 1365 1370 1375 1375 1380 1384 1389 1395 1398 1398 1399 1399 1402 1405 1409 1413 1412 1419 1415 1406 1404 1402 1406 1408 1394 1391 1387 1386 1381 1387 1390 1380 1375 1375
1280 1288 1297 1305 1314 1324 1335 1339 1349 1357 1364 1368 1368 1370 1373 1380 1384 1388 1391 1395 1397 1398 1398 1401 1406 1411 1400 1408 1401 1406 1400 1399 1401 1397 1393 1390 1385 1381 1378 1377 1377 1375 1374 1369
1272 1282 1290 1300 1310 1318 1331 1339 1348 1354 1363 1362 1362 1364 1368 1373 1380 1384 1386 1389 1393 1393 1397 1400 1404 1400 1401 1399 1399 1401 1400 1402 1404 1404 1400 1401 1387 1383 1375 1371 1374 1374 1371 1369
1265 1275 1285 1296 1307 1315 1327 1342 1350 1354 1359 1360 1363 1362 1361 1365 1373 1380 1382 1386 1387 1389 1390 1396 1396 1397 1399 1403 1400 1404 1404 1402 1402 1399 1392 1396 1392 1383 1374 1372 1368 1370 1369 1370
1262 1272 1285 1297 1307 1311 1325 1331 1333 1347 1356 1358 1361 1360 1359 1365 1369 1376 1381 1383 1384 1385 1387 1390 1391 1392 1395 1397 1401 1405 1403 1400 1398 1398 1390 1394 1386 1382 1381 1376 1370 1368 1368 1366
1265 1277 1289 1299 1307 1319 1330 1331 1333 1345 1354 1358 1357 1355 1359 1359 1363 1371 1375 1377 1381 1383 1385 1388 1388 1390 1393 1395 1405 1404 1402 1399 1396 1395 1395 1393 1385 1383 1379 1375 1368 1366 1365 1365
1277 1285 1296 1305 1316 1323 1329 1333 1342 1349 1355 1352 1353 1351 1353 1360 1362 1367 1372 1375 1383 1384 1384 1386 1386 1393 1400 1405 1405 1404 1401 1400 1396 1392 1391 1391 1382 1381 1380 1377 1370 1367 1366 1366
1289 1297 1303 1314 1322 1328 1334 1344 1348 1353 1353 1350 1349 1350 1351 1355 1360 1369 1373 1375 1380 1382 1382 1382 1392 1402 1408 1407 1405 1403 1402 1397 1393 1391 1388 1387 1386 1384 1383 1380 1374 1371 1372 1372
1300 1303 1312 1322 1327 1330 1334 1341 1345 1348 1350 1348 1350 1350 1350 1357 1363 1368 1371 1373 1377 1377 1378 1381 1395 1404 1408 1407 1406 1403 1400 1396 1393 1392 1389 1389 1386 1384 1385 1382 1377 1377 1374 1371
1307 1310 1319 1325 1331 1333 1337 1344 1346 1344 1347 1349 1350 1352 1355 1360 1362 1366 1371 1371 1373 1367 1382 1389 1402 1409 1410 1408 1406 1403 1399 1396 1394 1391 1390 1390 1387 1387 1385 1383 1381 1373 1376 1380
1313 1314 1319 1327 1338 1346 1349 1348 1346 1349 1353 1355 1354 1356 1358 1361 1364 1367 1369 1368 1372 1382 1390 1404 1411 1412 1410 1409 1407 1404 1401 1399 1396 1394 1393 1393 1391 1390 1386 1385 1386 1385 1387 1391
1316 1326 1344 1350 1361 1361 1363 1363 1362 1359 1358 1356 1354 1356 1360 1364 1366 1370 1370 1383 1383 1398 1410 1409 1415 1413 1412 1411 1409 1407 1405 1402 1401 1399 1399 1399 1398 1396 1391 1391 1394 1394 1397 1400
1332 1342 1360 1365 1368 1366 1364 1362 1361 1360 1358 1357 1359 1363 1367 1372 1376 1381 1383 1392 1405 1408 1417 1418 1418 1416 1415 1414 1413 1412 1410 1409 1407 1407 1406 1405 1402 1401 1399 1402 1403 1404 1405 1404
1350 1362 1368 1368 1367 1367 1364 1363 1362 1360 1359 1360 1362 1368 1375 1385 1388 1392 1400 1401 1411 1418 1418 1420 1419 1419 1418 1418 1418 1416 1414 1415 1415 1414 1413 1412 1411 1410 1411 1413 1413 1412 1412 1411
1366 1375 1375 1373 1373 1374 1372 1368 1365 1363 1363 1368 1372 1379 1386 1390 1396 1406 1410 1414 1418 1419 1420 1421 1421 1422 1422 1422 1423 1423 1422 1421 1419 1418 1419 1421 1421 1420 1419 1418 1419 1418 1418 1418
Wind_Speed
29 31 30 29 27 24 23 23 6 17 23 9 6 10 7 13 13 8 3 4 3 3 6 3 2 3 4 12 8 5 9 5 13 19 8 3 4 7 8 5 4 2 4 9
35 33 31 28 28 27 23 12 8 26 32 10 12 4 11 12 6 8 3 3 5 4 2 3 3 6 8 16 9 0 2 3 10 8 4 5 6 5 7 3 3 8 7 6
37 35 32 31 30 33 30 9 5 10 24 9 15 8 9 13 19 7 3 3 3 1 3 3 5 5 5 23 7 8 5 4 7 12 7 4 4 8 7 10 6 4 8 9
37 37 36 34 33 37 31 15 6 9 7 15 9 15 8 15 12 16 2 5 13 5 2 3 4 9 12 5 5 3 4 2 7 12 10 13 8 7 8 7 10 12 10 10
38 37 36 35 36 36 37 10 6 9 3 21 20 15 15 14 16 6 9 13 7 5 11 8 6 12 5 6 3 4 1 2 7 6 8 8 14 16 20 14 7 8 6 6
39 37 36 37 38 38 32 26 16 8 10 13 16 20 18 14 11 13 28 9 7 8 14 15 20 20 17 12 11 4 3 3 4 4 12 9 10 12 17 8 6 7 8 9
38 37 37 38 41 46 39 25 17 11 5 13 13 15 22 23 18 19 7 19 9 11 16 19 22 20 20 15 9 9 4 4 3 1 6 4 7 6 12 15 14 8 6 6
33 34 35 38 40 45 49 35 23 20 9 9 17 17 19 25 28 18 20 22 20 10 16 3 4 3 4 8 9 9 6 4 3 3 4 8 18 6 4 8 19 13 11 9
31 32 33 36 38 41 45 44 33 24 6 16 13 18 21 9 10 12 15 27 22 6 1 2 4 3 4 4 1 8 5 4 4 3 3 6 5 10 20 6 14 6 9 9
31 31 30 31 32 35 46 36 46 18 11 17 25 17 17 18 12 5 8 12 14 24 2 2 3 5 4 3 4 4 5 2 6 3 3 7 7 10 19 5 13 5 6 6
33 35 35 34 34 34 34 32 31 41 12 9 18 31 15 19 24 5 8 5 4 3 5 3 3 3 5 5 4 5 6 5 4 4 4 8 7 9 4 15 13 8 8 12
36 37 36 36 37 36 34 23 34 25 16 8 24 27 27 33 36 30 17 10 7 11 4 3 1 2 1 4 3 2 2 5 5 7 6 7 4 3 12 32 38 12 8 11
32 33 37 39 38 38 38 30 29 26 8 10 13 24 31 25 24 32 16 16 17 7 8 4 3 5 3 3 5 4 2 4 5 2 7 15 23 30 31 41 39 16 9 15
31 31 32 34 37 41 40 40 31 30 7 3 5 26 22 22 26 27 30 23 23 16 11 3 2 2 4 4 4 4 5 5 3 7 7 16 26 31 38 35 32 29 16 11
32 30 31 34 34 42 41 38 34 34 8 5 4 7 16 20 28 21 21 30 26 16 3 2 2 3 2 2 2 1 3 3 1 3 12 14 15 17 14 14 18 10 11 9
29 32 35 33 33 47 38 12 34 23 20 3 2 3 9 16 25 27 18 22 20 14 7 3 6 7 3 3 4 4 7 5 4 6 16 31 23 10 15 12 9 5 1 5
26 31 36 33 36 49 30 12 15 39 19 3 1 2 7 19 21 18 18 13 9 7 6 5 5 5 4 1 3 6 7 10 6 13 14 8 12 11 14 10 9 7 8 9
33 34 35 34 48 41 13 6 24 38 16 5 1 3 5 11 8 7 8 9 7 5 4 2 3 2 4 2 6 8 10 11 5 10 10 8 6 9 12 12 9 8 10 11
35 43 51 42 26 9 12 20 36 27 5 3 3 3 3 11 5 6 4 5 2 1 2 3 4 2 2 5 9 11 12 9 13 15 9 10 10 10 12 12 11 14 15 13
45 41 14 8 9 31 31 13 6 7 6 6 1 1 2 5 4 2 3 2 2 3 4 6 3 3 9 12 10 11 12 10 9 14 6 9 9 8 8 10 12 13 12 11
18 6 8 31 33 13 6 5 4 6 2 2 2 4 4 4 3 3 2 3 3 3 3 3 2 2 4 13 11 10 8 6 3 1 3 4 1 4 5 9 11 11 12 14
12 24 27 16 5 3 4 3 0 3 2 4 3 4 5 5 3 3 3 3 3 2 3 3 2 3 9 10 10 10 9 7 7 7 7 6 7 8 9 12 14 17 16 16
6 5 6 6 7 9 5 4 3 3 4 7 3 3 4 4 5 3 2 3 3 3 3 3 2 6 8 8 8 10 11 11 14 17 18 17 19 18 20 23 21 23 26 26
9 7 7 4 5 4 2 1 2 3 4 7 6 5 3 4 3 2 3 2 4 3 3 2 2 10 9 10 10 14 17 19 21 23 23 25 27 28 30 29 27 28 29 27
8 8 5 4 4 7 6 8 2 7 6 3 6 6 5 4 4 3 3 5 4 3 1 1 6 12 16 17 17 20 22 24 26 26 28 29 30 32 33 30 29 29 29 29
7 10 4 10 3 6 11 15 10 11 6 4 6 3 4 4 2 5 4 3 3 1 2 11 16 19 19 20 21 23 25 26 27 28 28 29 29 29 29 27 26 26 25 26
6 5 18 7 4 4 8 12 14 8 6 3 3 5 5 3 3 3 4 3 3 11 17 18 18 20 20 20 21 21 22 23 24 25 25 24 23 23 24 26 23 22 22 22
Wind_Direction
264 264 258 254 250 240 235 235 224 186 200 188 206 223 190 242 263 311 277 269 308 317 15 333 299 294 57 9 359 179 197 172 235 242 233 213 156 203 186 180 230 223 178 246
263 262 257 250 241 233 231 228 178 184 191 210 213 212 214 230 256 254 298 295 201 236 295 322 337 326 349 28 348 62 334 271 251 286 334 284 217 200 203 159 116 199 201 263
264 262 255 246 234 233 226 189 179 181 201 213 199 197 227 215 218 266 281 280 324 260 248 213 293 334 326 345 340 304 196 223 193 240 229 199 201 215 205 199 199 213 226 239
260 256 251 240 230 225 221 205 212 193 195 206 178 191 216 208 214 214 251 254 232 236 336 351 254 266 306 346 294 340 68 303 355 286 231 223 246 251 261 229 226 212 223 216
258 253 244 238 228 218 222 197 187 186 183 188 198 198 211 213 215 209 212 240 283 274 241 212 305 297 290 273 293 24 274 284 14 306 276 227 245 243 257 261 234 250 252 249
256 247 240 232 224 211 216 218 205 188 178 173 193 211 213 209 217 226 232 224 247 259 254 243 242 257 252 263 279 288 226 130 46 285 335 323 275 234 239 242 203 187 220 224
251 245 237 229 219 213 213 210 192 206 206 203 198 187 204 208 222 227 242 236 235 243 263 309 273 259 250 251 240 212 165 110 121 303 321 222 268 210 224 229 244 235 240 231
243 241 234 223 218 215 215 210 199 206 228 204 204 196 190 205 211 223 228 241 240 268 308 265 286 307 228 239 226 213 183 125 145 188 198 300 302 310 279 218 251 226 225 238
239 233 228 224 221 217 216 218 213 203 214 219 184 198 197 180 189 203 236 238 246 268 186 177 232 241 243 219 225 192 159 83 140 151 179 236 224 332 312 308 262 257 185 214
235 229 227 221 216 213 214 215 216 200 209 219 192 188 198 186 157 167 199 235 235 236 176 233 198 246 243 251 186 134 162 156 201 212 251 280 264 335 351 283 253 319 327 316
235 230 225 221 219 218 210 215 198 205 218 230 202 196 186 180 183 157 196 167 207 124 181 179 210 190 231 207 180 180 162 154 183 164 197 269 331 354 66 321 316 1 24 1
230 227 223 219 216 215 214 211 213 216 204 204 206 207 210 210 205 190 186 190 175 183 154 187 161 216 354 176 229 201 208 184 178 186 209 212 76 238 308 286 282 289 332 341
225 221 219 216 214 210 206 201 205 204 193 189 188 193 205 204 201 209 198 220 220 194 206 166 198 225 120 174 226 219 296 183 200 104 234 256 256 263 265 259 258 254 296 321
214 212 210 208 209 206 197 202 193 187 152 175 210 206 199 206 208 214 225 234 222 223 190 137 151 180 187 207 209 172 208 139 212 259 282 282 281 273 269 256 255 255 254 237
203 204 207 204 201 196 189 198 193 180 196 185 169 201 218 222 215 224 232 231 225 220 195 117 218 253 148 257 49 66 10 129 138 249 339 318 290 334 321 279 273 286 275 238
211 205 198 190 189 177 165 147 198 186 202 149 190 211 191 196 199 206 230 228 221 223 180 194 217 256 209 225 164 68 27 4 331 290 328 302 300 357 17 23 46 29 326 322
176 176 179 179 175 171 162 171 182 184 174 166 176 193 170 196 174 193 213 216 225 211 195 193 186 194 202 199 129 5 339 323 314 343 6 266 356 345 356 10 25 15 1 349
153 158 158 160 169 160 150 150 161 166 164 188 317 183 145 150 140 165 158 151 167 185 183 190 188 133 147 156 8 350 348 332 279 342 355 321 334 321 351 354 8 7 18 15
130 142 140 131 121 100 113 128 160 159 164 116 255 129 131 165 125 117 124 140 79 138 153 234 137 82 61 20 348 339 338 338 312 312 310 332 11 4 359 8 38 44 41 39
124 124 107 88 98 124 123 116 119 167 233 229 123 176 104 120 103 84 105 102 127 186 228 116 68 82 89 17 355 335 324 330 328 330 343 338 -0 3 10 24 38 49 53 60
114 65 69 127 135 112 55 103 153 188 192 353 70 100 110 92 106 133 124 151 156 196 175 140 102 89 32 5 7 350 347 344 342 254 310 320 303 41 33 52 64 69 69 71
95 107 124 138 146 135 129 133 191 70 80 23 34 52 91 103 131 106 158 186 193 136 43 73 76 40 18 8 13 21 29 39 58 73 77 74 82 87 90 81 73 79 85 96
100 57 63 39 360 43 46 16 18 44 9 1 28 81 79 92 75 78 149 208 71 84 52 81 55 27 30 23 32 54 67 78 82 83 86 90 94 96 96 93 94 100 102 104
54 46 39 63 11 39 23 334 245 330 345 353 53 57 56 40 54 4 76 36 49 67 64 76 24 48 67 69 73 85 85 90 94 94 96 97 97 95 94 96 100 102 103 106
55 38 45 53 4 18 343 352 15 1 348 44 97 64 58 22 64 23 72 44 61 64 116 75 58 85 84 79 82 86 89 90 91 96 96 96 96 95 94 95 98 100 101 98
56 43 22 355 41 347 7 7 360 11 24 73 55 84 71 43 47 48 15 67 64 82 59 92 95 96 98 96 97 97 97 97 97 97 96 96 95 94 96 98 96 95 96 96
52 45 24 31 31 337 338 353 343 17 39 51 44 57 42 71 58 54 20 34 79 91 83 104 111 108 106 106 105 105 105 103 101 99 97 99 101 103 99 93 92 93 94 95